• Join FlightAware (Why Join?)
  • Login
  • US Flag GB Flag 
02:23 EDT


 

Airport Tracker/Info


-or-


 

Live Flight TrackerFlight Track Log ✈ DAL61 ✈ 10-May-2013 ✈ KLGA - KATL

Flight Track Log - Related Links

Times and Time Zones

All times are in EDT time to prevent confusion due to time zone crossing. See the DAL61 flight status page for this flight to view local times or setup timezone preferences in your user account.

Time Position Orientation Groundspeed Altitude Reporting Facility
EDT Latitude Longitude Course Direction KTS MPH feet Rate Location/Type
18:36 40.7667 -73.8500 270° West 160 184 1,000  Level New York TRACON
18:37 40.7833 -73.7833 72° East 238 274 3,300 2,340 Climbing New York TRACON
18:38 40.6907 -74.2558 258° West  Level FlightAware Approximate
18:38 40.8333 -73.7833 360° North 265 305 6,000  Level New York TRACON
18:39 40.6672 -74.3968 258° West  Level FlightAware Approximate
18:39 40.8833 -73.8500 315° West 266 306 9,000  Level New York TRACON
18:40 40.6454 -74.5383 259° West  Level FlightAware Approximate
18:40 40.8833 -73.9500 270° West 265 305 11,600  Level New York TRACON
18:41 40.6167 -74.6701 270° West  Level FlightAware Approximate
18:41 40.8667 -74.0500 258° West 323 372 12,900  Level New York TRACON
18:42 40.8333 -74.1833 252° West 378 435 14,600 1,260 Climbing New York TRACON
18:43 40.7833 -74.3167 244° Southwest 393 452 15,500 900 Climbing New York TRACON
18:44 40.7208 -74.5194 248° West 389 448 17,000 1,260 Climbing New York Center
18:45 40.6789 -74.6539 248° West 394 453 18,900 1,860 Climbing New York Center
18:46 40.6347 -74.7908 247° West 406 467 20,800 1,800 Climbing New York Center
18:47 40.5881 -74.9358 247° West 412 474 22,500 1,560 Climbing New York Center
18:48 40.5289 -75.0769 241° Southwest 426 490 24,000 720 Climbing New York Center
18:49 40.4556 -75.1978 231° Southwest 426 490 24,000  Level New York Center
18:50 40.3781 -75.3181 230° Southwest 437 503 24,000  Level New York Center
18:51 40.3003 -75.4436 231° Southwest 443 510 24,000  Level New York Center
18:52 40.2225 -75.5661 230° Southwest 443 510 24,000  Level New York Center
18:53 40.1567 -75.6975 237° Southwest 443 510 24,000  Level New York Center
18:54 40.0883 -75.8311 236° Southwest 443 510 24,000  Level New York Center
18:55 40.0222 -75.9592 236° Southwest 438 504 24,000  Level New York Center
18:56 39.9539 -76.0922 236° Southwest 438 504 24,000  Level New York Center
18:57 39.9011 -76.1964 237° Southwest 438 504 24,000  Level New York Center
18:58 39.8136 -76.3328 230° Southwest 444 511 24,000  Level New York Center
18:59 39.7308 -76.4478 227° Southwest 444 511 24,000  Level New York Center
19:00 39.6442 -76.5594 225° Southwest 449 517 24,000  Level New York Center
19:01 39.5442 -76.6894 225° Southwest 433 498 24,000  Level Washington Center
19:02 39.4575 -76.8011 225° Southwest 427 491 24,000  Level Washington Center
19:03 39.3750 -76.9097 226° Southwest 427 491 24,000  Level Washington Center
19:04 39.2906 -77.0208 226° Southwest 432 497 24,000  Level Washington Center
19:05 39.2078 -77.1317 226° Southwest 432 497 24,100 720 Climbing Washington Center
19:06 39.1208 -77.2450 225° Southwest 432 497 25,500 1,740 Climbing Washington Center
19:07 39.0339 -77.3606 226° Southwest 443 510 27,600 1,200 Climbing Washington Center
19:08 38.9489 -77.4681 225° Southwest 443 510 28,000 180 Climbing Washington Center
19:09 38.8719 -77.5728 227° Southwest 443 510 28,000  Level Washington Center
19:10 38.7828 -77.6794 223° Southwest 448 516 28,000  Level Washington Center
19:11 38.6994 -77.7917 226° Southwest 448 516 28,000  Level Washington Center
19:12 38.6139 -77.9086 227° Southwest 448 516 28,000  Level Washington Center
19:13 38.5425 -78.0339 234° Southwest 448 516 28,000  Level Washington Center
19:14 38.4711 -78.1586 234° Southwest 448 516 28,000  Level Washington Center
19:15 38.3975 -78.2833 233° Southwest 448 516 28,000  Level Washington Center
19:16 38.3217 -78.4075 232° Southwest 448 516 28,000  Level Washington Center
19:17 38.2475 -78.5397 234° Southwest 439 505 28,000  Level Washington Center
19:18 38.1736 -78.6608 232° Southwest 439 505 28,000  Level Washington Center
19:19 38.0839 -78.7417 215° Southwest 439 505 28,000 900 Level Washington Center
19:20 37.9778 -78.8111 207° Southwest 434 499 29,900 960 Climbing Washington Center
19:21 37.8717 -78.8828 208° Southwest 439 505 30,000  Climbing Washington Center
19:22 37.7633 -78.9569 208° Southwest 439 505 30,000  Level Washington Center
19:23 37.6442 -79.0381 208° Southwest 445 512 30,000  Level Washington Center
19:24 37.5356 -79.1144 209° Southwest 452 520 30,000  Level Washington Center
19:25 37.4247 -79.1931 209° Southwest 452 520 30,000  Level Washington Center
19:26 37.3139 -79.2686 208° Southwest 452 520 30,000  Level Washington Center
19:27 37.2072 -79.3417 209° Southwest 452 520 30,000  Level Washington Center
19:28 37.1214 -79.4208 216° Southwest 447 514 30,000  Level Washington Center
19:29 37.0486 -79.5397 233° Southwest 426 490 30,000  Level Washington Center
19:31 36.9178 -79.7550 233° Southwest 430 495 30,000  Level Atlanta Center
19:32 36.8431 -79.8836 234° Southwest 430 495 30,000  Level Atlanta Center
19:33 36.7697 -80.0014 232° Southwest 430 495 30,000  Level Atlanta Center
19:34 36.6986 -80.1189 233° Southwest 430 495 30,000  Level Atlanta Center
19:35 36.6292 -80.2386 234° Southwest 430 495 30,000  Level Atlanta Center
19:36 36.5636 -80.3453 233° Southwest 430 495 30,000  Level Atlanta Center
19:37 36.4942 -80.4622 234° Southwest 430 495 30,000  Level Atlanta Center
19:38 36.4186 -80.5892 234° Southwest 425 489 30,000  Level Atlanta Center
19:39 36.3489 -80.7056 233° Southwest 425 489 30,000  Level Atlanta Center
19:40 36.2828 -80.8114 232° Southwest 425 489 30,000  Level Atlanta Center
19:41 36.2128 -80.9250 233° Southwest 425 489 30,000  Level Atlanta Center
19:42 36.1406 -81.0383 232° Southwest 425 489 30,000  Level Atlanta Center
19:43 36.0725 -81.1564 235° Southwest 425 489 30,000  Level Atlanta Center
19:44 36.0000 -81.2694 232° Southwest 425 489 30,000  Level Atlanta Center
19:45 35.9294 -81.3872 234° Southwest 425 489 30,000  Level Atlanta Center
19:46 35.8608 -81.4994 233° Southwest 430 495 30,000  Level Atlanta Center
19:47 35.7881 -81.6144 232° Southwest 424 488 30,000  Level Atlanta Center
19:48 35.7153 -81.7292 232° Southwest 424 488 30,000  Level Atlanta Center
19:49 35.6422 -81.8436 232° Southwest 429 494 30,000  Level Atlanta Center
19:50 35.5692 -81.9553 231° Southwest 429 494 30,000  Level Atlanta Center
19:51 35.4958 -82.0694 232° Southwest 429 494 30,000  Level Atlanta Center
19:52 35.4164 -82.1961 232° Southwest 429 494 30,000 -420 Level Atlanta Center
19:53 35.3431 -82.3100 232° Southwest 429 494 29,200 -780 Descending Atlanta Center
19:54 35.2778 -82.4131 232° Southwest 410 472 28,500 -900 Descending Atlanta Center
19:55 35.2103 -82.5161 231° Southwest 399 459 27,400 -1,140 Descending Atlanta Center
19:56 35.1447 -82.6164 231° Southwest 392 451 26,300 -1,020 Descending Atlanta Center
19:57 35.0789 -82.7164 231° Southwest 387 445 25,400 -1,200 Descending Atlanta Center
19:58 35.0153 -82.8139 231° Southwest 382 440 24,000 -1,440 Descending Atlanta Center
19:59 34.9431 -82.9011 225° Southwest 377 434 22,600 -1,440 Descending Atlanta Center
20:00 34.8667 -82.9806 220° Southwest 365 420 21,200 -1,320 Descending Atlanta Center
20:01 34.7964 -83.0625 224° Southwest 360 414 20,000 -600 Descending Atlanta Center
20:02 34.7219 -83.1442 222° Southwest 360 414 20,000  Level Atlanta Center
20:03 34.6536 -83.2256 224° Southwest 355 409 20,000  Level Atlanta Center
20:04 34.5789 -83.3047 221° Southwest 355 409 20,000 -240 Level Atlanta Center
20:05 34.5083 -83.3833 223° Southwest 355 409 19,600 -720 Descending Atlanta Center
20:06 34.4797 -83.4794 250° West 327 376 18,600 -1,320 Descending Atlanta Center
20:07 34.4342 -83.5628 236° Southwest 311 358 17,000 -1,620 Descending Atlanta Center
20:08 34.3675 -83.6161 213° Southwest 291 335 15,400 -1,320 Descending Atlanta Center
20:09 34.3114 -83.6667 217° Southwest 291 335 14,400 -1,200 Descending Atlanta Center
20:10 34.2489 -83.7147 212° Southwest 279 321 13,100 -1,200 Descending Atlanta Center
20:11 34.1906 -83.7625 214° Southwest 263 303 12,000 -600 Descending Atlanta Center
20:12 34.1364 -83.8078 215° Southwest 257 296 12,000 -60 Level Atlanta Center
20:13 34.0781 -83.8558 214° Southwest 257 296 11,900 -660 Descending Atlanta Center
20:14 34.0333 -83.8833 207° Southwest 248 285 11,000 -1,200 Descending Atlanta TRACON
20:15 33.9833 -83.9500 228° Southwest 254 292 10,100 -840 Descending Atlanta TRACON
20:16 33.9333 -83.9667 195° South 259 298 9,400 -540 Descending Atlanta TRACON
20:17 33.8500 -83.9833 189° South 256 295 9,100 -300 Descending Atlanta TRACON
20:17 33.8256 -83.9789 171° South 253 291 9,000 -540 Descending Atlanta Center
20:18 33.7567 -84.0014 195° South 259 298 8,400 -960 Descending Atlanta Center
20:19 33.6942 -84.0364 205° Southwest 254 292 7,100 -1,320 Descending Atlanta Center
20:21 33.6333 -84.1333 233° Southwest 203 234 4,900 -1,200 Descending Atlanta TRACON
20:22 33.6333 -84.2000 270° West 217 250 4,000 -840 Descending Atlanta TRACON
20:23 33.6333 -84.2833 270° West 211 243 3,300 -720 Descending Atlanta TRACON